Погода в Дулане

Узбекистан     40°37′53″N   72°24′38″E
темп.,
°C
ветер,
м/с
пор.,
м/с
влажн.,
%
обл.,
%
осадки,
мм/ч
давл.,
гПа
погр.,
м
24 октября, вс
вс2423:00+7вюв22320 0.0 102911
02:00+6в22390 0.0 102715
05:00+5вюв22410 0.0 102614
08:00+7в34340 0.0 1026134
11:00+15всв23170 0.0 1022739
14:00+18ссз22130 0.0 1018984
17:00+14зсз22180 0.0 101711
20:00+11вюв11210 0.0 101810
25 октября, пн
пн2523:00+9в22260 0.0 101811
02:00+8в33370 0.0 101829
05:00+7в34340 0.0 101844
08:00+10в36280 0.0 1019146
11:00+18всв22150 0.0 1017694
14:00+21зсз21120 0.0 10141074
17:00+16зсз22170 0.0 101511
20:00+13вюв21210 0.0 101710
26 октября, вт
вт2623:00+11вюв22240 0.0 101710
02:00+10вюв22340 0.0 101812
05:00+9вюв22360 0.0 101911
08:00+11в232941 0.0 102083
11:00+18сз1118100 0.0 1019616
14:00+20зюз2214100 0.0 10181033
17:00+16зсз111970 0.0 101911
20:00+13юв112282 0.0 102110
27 октября, ср
ср2723:00+12вюв22245 0.0 102212
02:00+10вюв3327100 0.0 102321
05:00+10вюв2229100 0.0 102412
08:00+12вюв2226100 0.0 102564
11:00+18в1118100 0.0 1023503
14:00+18з3216100 0.0 1021659
17:00+15зюз1121100 0.0 102210
20:00+13юв1124100 0.0 102310
28 октября, чт
чт2823:00+12юв1126100 0.0 102210
02:00+11вюв1129100 0.0 102210
05:00+11юв1129100 0.0 102210
08:00+12ю1128100 0.0 102327
11:00+16юз3424100 0.0 1023646
14:00+17з4425100 0.0 10211170
17:00+14з1231100 0.0 102226
20:00+13юз4742100 0.0 1024258